Weather History for HEGN - May, 2013

Change the Weather History Date:

Saturday, May 11, 2013

  Actual Average Record
Temperature  
Mean Temperature 82 °F -  
Max Temperature 91 °F 90 °F 95 °F (2004)
Min Temperature 74 °F 74 °F 66 °F (2005)
Cooling Degree Days 18    
Growing Degree Days 32 (Base 50)    
Moisture  
Dew Point 65 °F    
Average Humidity 53    
Maximum Humidity 74    
Minimum Humidity 27    
Precipitation  
Precipitation 0.00 in - - ()
Sea Level Pressure  
Sea Level Pressure 29.81 in    
Wind  
Wind Speed 11 mph ()    
Max Wind Speed 21 mph    
Max Gust Speed -    
Visibility 3.4 miles    
Events      
Averages and records for this station are not official NWS values.
T = Trace of Precipitation, MM = Missing Value Source: Averaged Metar Reports

Daily Weather History Graph

Daily Weather History Graph

Search for Another Location

Airport or City:

Trip Planner

Search our weather history database for the weather conditions in past years. The results will help you decide how hot, cold, wet, or windy it might be!

Date:

Astronomy

May. 11, 2013 Rise Set
Actual Time 4:58 AM EET 6:23 PM EET
Civil Twilight 4:33 AM EET 6:48 PM EET
Nautical Twilight 4:04 AM EET 7:18 PM EET
Astronomical Twilight 3:32 AM EET 7:49 PM EET
Moon 5:53 AM EET (5/11) 7:43 PM EET (5/11)
Length of Visible Light 14h 14m
Length of Day
13h 24m
New Moon, 2% of the Moon is Illuminated
May 11
New Moon
May 18
First Quarter
May 25
Full
May 31
Last Quarter
Jun 8
New

Hourly Weather History & Observations

Time (EET) Temp. Heat Index Dew Point Humidity Pressure Visibility Wind Dir Wind Speed Gust Speed Precip Events Conditions
12:00 AM 78.8 °F - 64.4 °F 61% 29.86 in 3.7 mi North 20.7 mph - N/A   Unknown
1:00 AM 78.8 °F - 59.0 °F 51% 29.86 in 3.7 mi NW 13.8 mph - N/A   Unknown
2:00 AM 77 °F - 58 °F 41% 29.87 in 4 mi WNW 18.4 mph - -   Blowing Sand
2:00 AM 77.0 °F - 57.2 °F 50% 29.86 in 3.7 mi WNW 18.4 mph - N/A   Unknown
3:00 AM 77.0 °F - 57.2 °F 50% 29.86 in 5.0 mi WNW 18.4 mph - N/A   Unknown
4:00 AM 75.2 °F - 55.4 °F 50% 29.86 in - WNW 17.3 mph - N/A   Clear
5:00 AM 75.2 °F - 55.4 °F 50% 29.86 in - WNW 9.2 mph - N/A   Clear
6:00 AM 77.0 °F - 55.4 °F 47% 29.86 in - West 4.6 mph - N/A   Clear
7:00 AM 80.6 °F 80.8 °F 57.2 °F 45% 29.86 in - Calm Calm - N/A   Clear
8:00 AM 88 °F - 59 °F 27% 29.88 in 6 mi East 4.6 mph - -   Partly Cloudy
8:00 AM 87.8 °F 87.1 °F 59.0 °F 38% 29.86 in - East 4.6 mph - N/A   Clear
9:00 AM 89.6 °F 90.1 °F 62.6 °F 40% 29.86 in 2.5 mi ESE 4.6 mph - N/A   Haze
10:00 AM 89.6 °F 92.2 °F 66.2 °F 46% 29.86 in 2.5 mi ESE 5.8 mph - N/A   Haze
11:00 AM 89.6 °F 94.7 °F 69.8 °F 52% 29.83 in 2.5 mi ESE 9.2 mph - N/A   Haze
12:00 PM 91.4 °F 96.8 °F 69.8 °F 49% 29.80 in 2.5 mi ESE 9.2 mph - N/A   Haze
1:00 PM 89.6 °F 93.4 °F 68.0 °F 49% 29.80 in 2.5 mi SE 10.4 mph - N/A   Haze
2:00 PM 89 °F - 69 °F 42% 29.78 in 2 mi SE 15.0 mph - -   Blowing Sand
2:00 PM 89.6 °F 94.7 °F 69.8 °F 52% 29.77 in 2.5 mi SE 15.0 mph - N/A   Sand
3:00 PM 89.6 °F 92.2 °F 66.2 °F 46% 29.74 in 2.5 mi SSE 13.8 mph - N/A   Sand
4:00 PM 86.0 °F 89.4 °F 68.0 °F 55% 29.74 in 2.5 mi SSE 15.0 mph - N/A   Sand
5:00 PM 86.0 °F 88.2 °F 66.2 °F 51% 29.71 in 2.5 mi SE 13.8 mph - N/A   Sand
6:00 PM 82.4 °F 86.3 °F 69.8 °F 66% 29.71 in 2.5 mi SE 15.0 mph - N/A   Sand
7:00 PM 80.6 °F 84.6 °F 71.6 °F 74% 29.74 in 2.5 mi SSE 13.8 mph - N/A   Sand
8:00 PM 81 °F - 71 °F 65% 29.75 in 4 mi ENE 13.8 mph - -   Blowing Sand
8:00 PM 80.6 °F 84.6 °F 71.6 °F 74% 29.74 in 3.7 mi SSE 13.8 mph - N/A   Scattered Clouds
9:00 PM 80.6 °F 84.6 °F 71.6 °F 74% 29.74 in 6.2 mi SE 6.9 mph - N/A   Scattered Clouds
10:00 PM 80.6 °F 84.6 °F 71.6 °F 74% 29.77 in 6.2 mi ESE 4.6 mph - N/A   Scattered Clouds
11:00 PM 80.6 °F 84.6 °F 71.6 °F 74% 29.77 in - SSE 2.3 mph - N/A   Volcanic Ash